Location: Unspecified
(38.9820°N, 94.4650°W)
Time: 08:11:47

Hubble Space Telescope - Visible Passes

Search period start: 26 October 2016 00:00
Search period end: 05 November 2016 00:00
Orbit: 538 x 542 km, 28.5° (Epoch: 26 October)

Date Brightness Start Highest point End Pass type
(mag) Time Alt. Az. Time Alt. Az. Time Alt. Az.
02 Nov 3.3 07:12:29 10° SSW 07:14:50 15° SSE 07:17:12 10° SE visible
03 Nov 3.2 07:02:14 10° SSW 07:04:51 16° S 07:07:29 10° SE visible
04 Nov 3.1 06:52:04 10° SW 06:54:52 17° S 06:57:40 10° SE visible
